Regional Weather Roundup
Issued by NWS Albany, NY

Home | Current Version | Previous Version | Graphics & Text | Print | Product List | Glossary Off
Versions: 1 2 3 4 5 6 7 8 9 10 11 12 13 14 15 16 17 18 19 20 21 22 23 24 25 26 27 28

000
ASUS41 KALY 230910
RWRALY

NEW YORK STATE HOURLY WEATHER ROUNDUP
NATIONAL WEATHER SERVICE ALBANY NY
500 AM EDT WED APR 23 2014

NOTE: "FAIR" INDICATES FEW OR NO CLOUDS BELOW 12,000 FEET WITH NO
SIGNIFICANT WEATHER AND/OR NO OBSTRUCTIONS TO VISIBILITY.

NYZ032-033-038>043-046>054-057>066-NYZ062>081-231000-
EAST


CITY           SKY/WX    TMP DP  RH WIND       PRES   REMARKS
ALBANY         CLOUDY    45  36  70 NW14G24   29.55F
GLENS FALLS    CLOUDY    50  38  63 W7        29.51S
POUGHKEEPSIE   CLOUDY    50  45  83 N10       29.51R
NEWBURGH       CLOUDY    50  43  76 NW16      29.53R
MONTGOMERY     CLOUDY    48  40  73 NW9G21    29.53R
WHITE PLAINS   CLOUDY    52  44  74 NW15G25   29.49R
ISLIP          CLOUDY    54  49  83 NW12      29.46S
NEW YORK CITY  MOCLDY    54  41  61 NW18G24   29.51R
CENTRAL PARK   CLOUDY    55  42  61 VRB6      29.54R
$$

NYZ005>009-017-018-044>046-055-056-231000-
CENTRAL


CITY           SKY/WX    TMP DP  RH WIND       PRES   REMARKS
FULTON         LGT RAIN  39  37  92 W12G22    29.62R FOG     WCI  32
SYRACUSE       LGT RAIN  41  39  93 W13       29.62R FOG
ROME           LGT RAIN  40  38  93 W10       29.60S WCI  33
ELMIRA         LGT RAIN  41  33  73 NW13G20   29.66R
BINGHAMTON     LGT RAIN  38  35  89 NW7       29.59R WCI  33
MONTICELLO     CLOUDY    41  36  81 W12       29.57S
$$

NYZ026>034-041>043-231000-
NORTH


CITY           SKY/WX    TMP DP  RH WIND       PRES   REMARKS
WATERTOWN      LGT RAIN  45  39  79 N14       29.60R
FORT DRUM      NOT AVBL
MASSENA        LGT RAIN  43  41  93 NW8       29.60R
SARANAC LAKE   CLOUDY    38  37  97 CALM      29.50R FOG
PLATTSBURGH    CLOUDY    44  40  85 NW6       29.52R
$$

NYZ001>004-010>016-019>021-231000-
WEST


CITY           SKY/WX    TMP DP  RH WIND       PRES   REMARKS
NIAGARA FALLS  LGT RAIN  38  34  85 NW16      29.75R WCI  29
BUFFALO        LGT RAIN  38  35  89 W8        29.75R WCI  32
DUNKIRK        CLOUDY    36  33  89 W10G22    29.81R WCI  28
JAMESTOWN      CLOUDY    34  30  86 W12       29.76R WCI  25
WELLSVILLE     CLOUDY    35  30  82 NW21      29.69R WCI  24
ROCHESTER      LGT RAIN  40  37  89 NW10      29.69R WCI  33
PENN YAN       LGT RAIN  40  35  83 W15G21    29.65R WCI  32
$$

             KEY
       WCI = WIND CHILL INDEX
       VSB = VISIBILITY
       HX  = HEAT INDEX
$$



USA.gov is the U.S. government's official web portal to all federal, state and local government web resources and services.